User: anonymous   Login
Location: Newark
(28.4500°N, 16.2500°W)
Time: 09:02:40
(UTC+00:00)
Language:

XW-2D - Orbit

View from above orbital plane
View from above orbital plane
View from above satellite
View from above satellite

Ground track
Ground track

The orbit data is extracted from the following two-line orbital elements,

1 40907U 15049J   19267.06670090  .00000500  00000-0  29516-4 0  9994
2 40907  97.4690 267.2303 0012952 214.6667 188.6059 15.15949874221769
Epoch (UTC): 24 September 2019 01:36:02
Eccentricity: 0.0012952
inclination: 97.4690°
perigee height: 509 km
apogee height: 527 km
right ascension of ascending node: 267.2303°
argument of perigee: 214.6667°
revolutions per day: 15.15949874
mean anomaly at epoch: 188.6059°
orbit number at epoch: 22176

The dashed part of the orbit path shows where the satellite is in the earth's shadow,  

DLR